Starlink 30073

operational
NORAD ID: 56840 Int'l Des: 2023-079 Owner: SPXS Country: US Constellation: starlink
LEOCIRCULAR

About Starlink 30073

Description loading...

Live Position

Loading 3D Globe...

Upcoming Passes

Altitude History

Altitude vs Time

uPlot chart will show altitude changes over time

Two-Line Element Set

1 56840U 23079T 25352.00002315 .00163562 00000-0 75131-3 0 9995
2 56840 42.9747 50.1685 0001553 348.5460 334.5846 15.82393169 5619
Epoch: Dec 18, 2025 • Age: 9 hours

Current Status

Altitude 334.4 km
Velocity 7.71 km/s
Sub-Earth Point -38.99°S, 126.45°E
Launch Date Jun 4, 2023
Age 2.5 years
Type internet

Technical Details

Classification Payload
Mass 730.00 kg
Dry Mass 700.00 kg
Total Mass 730.00 kg
Length 0.30 m
Diameter 4.10 m
Span 29.00 m
Shape Box + pan
Manufacturer SPXS
Bus Type Starlink V2M
Phase Status In Orbit
Owner/State SPXS/US

Large Constellations

Loading constellations...